Other Public Products
Issued by NWS Charleston, SC

Current Version | Previous Version | Text Only | Print | Product List | Glossary Off
Versions: 1 2 3 4 5 6 7 8 9 10 11 12 13 14 15 16 17 18 19 20 21 22 23 24 25 26 27 28 29 30 31 32 33 34 35 36 37 38 39 40 41 42 43 44 45 46 47 48 49 50
257 FPUS82 KCHS 152027 OPUCHS TEST...KCHS/KSAV Gateway Observations...TEST National Weather Service Charleston SC 300 PM EST MON JAN 15 2018 NOTE: "fair" indicates few or no clouds below 12,000 feet with no significant weather and/or obstructions to visibility. SCZ050-WAZ558-NCZ071-TXZ119-213-PAZ071-DCZ001-FLZ074-172-MI076- NYZ176-178-MAZ016-IL014-TNZ027-NJZ106-GAZ044-MD014-152100- ...Gateway Observations for Charleston International... CITY SKY/WX TMP DP RH WIND PRES REMARKS Chas Airport FAIR 48 17 29 N10 30.42S Seattle PTSUNNY 59 40 49 E9 29.96F Charlotte FAIR 38 10 31 W6 30.43S WCI 33 Dallas DFW PTSUNNY 58 45 62 SW12 30.25F Dallas Love CLOUDY 55 46 71 W7 30.27F Philladelphia CLOUDY 34 23 64 E10 30.49F WCI 26 Wash National CLOUDY 32 19 58 E6 30.49S WCI 26 Baltimore CLOUDY 29 19 66 N5 30.48S WCI 24 Miami PTSUNNY 75 58 55 N9G21 30.18F Detroit LGT SNOW 20 16 84 SE8 30.23S FOG WCI 10 Newark FAIR 31 17 56 NE10 30.53F WCI 22 Laguardia PTSUNNY 29 17 61 NE14 30.54F WCI 18 J F K PTSUNNY 29 18 63 NE14 30.54F WCI 18 Boston Logan CLOUDY 17 4 56 NW12 30.63R WCI 4 Ft. Lauderdale CLOUDY 72 61 68 NE14G23 30.18F Chicago O`Hare LGT SNOW 19 13 77 W14 30.15R WCI 6 Chicago Midway LGT SNOW 17 12 80 W15 30.17R FOG WCI 2 Houston Bush PTSUNNY 64 48 56 E12 30.28F Houston Hobby FAIR 67 48 50 S9 30.28F Nashville PTSUNNY 46 21 37 SW10 30.31S Atlanta FAIR 46 23 40 CALM 30.39F $$ GAZ044-118-TXZ119-213-NCZ071-DCZ001-MDZ014-506-PAZ021-071-NJZ106- NYZ176-178-MAZ106-OHZ011-021-055-MIZ076-KYZ091-ILZ014-INZ047- MNZ060-ONZ431-152100- ...Gateway Observations for Savannah International... CITY SKY/WX TMP DP RH WIND PRES REMARKS Savannah Arpt FAIR 52 19 27 N9 30.41F Atlanta FAIR 46 23 40 CALM 30.39F Charlotte FAIR 38 10 31 W6 30.43S WCI 33 Dallas DFW PTSUNNY 58 45 62 SW12 30.25F Houston Bush PTSUNNY 64 48 56 E12 30.28F Wash National CLOUDY 32 19 58 E6 30.49S WCI 26 Wash Dulles FAIR 29 17 61 CALM 30.46F Baltimore CLOUDY 29 19 66 N5 30.48S WCI 24 Philadelphia CLOUDY 34 23 64 E10 30.49F WCI 26 Newark FAIR 31 17 56 NE10 30.53F WCI 22 Laguardia PTSUNNY 29 17 61 NE14 30.54F WCI 18 J F K PTSUNNY 29 18 63 NE14 30.54F WCI 18 Boston CLOUDY 17 4 56 NW12 30.63R WCI 4 Pittsburg LGT SNOW 24 18 77 S8 30.28F WCI 15 Akron LGT SNOW 24 20 84 S10 30.24F VSB 3/4 WCI 14 Cleveland LGT SNOW 24 19 81 S13 30.26F WCI 12 Cincinnati LGT SNOW 28 27 96 SW9 30.22R VSB 3/4 WCI 19 Columbus LGT SNOW 26 24 93 S9 30.23S WCI 16 Detroit LGT SNOW 20 16 84 SE8 30.23S FOG WCI 10 Chicago O`Hare LGT SNOW 19 13 77 W14 30.15R WCI 6 Minneapolis FLURRIES 5 -3 69 NW18 30.40R WCI -15 Indianapolis LGT SNOW 24 23 96 SW13 30.21R FOG WCI 12 Toronto Canada LGT SNOW 18 10 73 E9 30.38F WCI 6 $$

USA.gov is the U.S. government's official web portal to all federal, state and local government web resources and services.